Dutch Harbor, AK

7:04 PM AKST on November 22, 2017 (GMT -0900)
Unalaska

Weather History for PADU - December, 2013

Change the Weather History Date:

Monday, December 23, 2013

  Actual Average Record
Temperature  
Mean Temperature 42 °F -  
Max Temperature 46 °F 41 °F 49 °F (1990)
Min Temperature 37 °F 30 °F 19 °F (2007)
Degree Days  
Heating Degree Days 24    
Moisture  
Dew Point 37 °F    
Average Humidity 85    
Maximum Humidity 89    
Minimum Humidity 71    
Precipitation  
Precipitation 1.97 in - - ()
Sea Level Pressure  
Sea Level Pressure 29.35 in    
Wind  
Wind Speed 26 mph (ESE)    
Max Wind Speed 41 mph    
Max Gust Speed 54 mph    
Visibility 4 miles    
Events Rain    
Averages and records for this station are not official NWS values.
T = Trace of Precipitation, MM = Missing Value Source: NWS Daily Summary

Daily Weather History Graph

Daily Weather History Graph

Search for Another Location

Airport or City:

Trip Planner

Search our weather history database for the weather conditions in past years. The results will help you decide how hot, cold, wet, or windy it might be!

Date:

Astronomy

Dec. 23, 2013 Rise Set
Actual Time 10:23 AM AKST 5:47 PM AKST
Civil Twilight 9:39 AM AKST 6:31 PM AKST
Nautical Twilight 8:53 AM AKST 7:17 PM AKST
Astronomical Twilight 8:10 AM AKST 8:00 PM AKST
Moon No Moon Rise 1:03 PM AKST
Length of Visible Light 8h 51m
Length of Day
7h 23m
Waning Gibbous, 66% of the Moon is Illuminated
Dec 23
Waning Gibbous
Dec 25
Last Quarter
Jan 1
New
Jan 7
First Quarter
Jan 15
Full

Hourly Weather History & Observations

Time (AKST) Temp. Windchill Dew Point Humidity Pressure Visibility Wind Dir Wind Speed Gust Speed Precip Events Conditions
12:56 AM 37.0 °F 25.4 °F 32.0 °F 82% 29.78 in 8.0 mi SE 25.3 mph 43.7 mph N/A Rain Light Rain
1:56 AM 37.0 °F 24.3 °F 33.1 °F 86% 29.73 in 4.0 mi SE 31.1 mph 43.7 mph 0.02 in Rain Light Rain
2:14 AM 37.4 °F 26.4 °F 33.8 °F 87% 29.71 in 7.0 mi SE 23.0 mph 35.7 mph 0.00 in Rain Light Rain
2:36 AM 37.4 °F 25.6 °F 33.8 °F 87% 29.69 in 4.0 mi SE 26.5 mph 38.0 mph 0.01 in Rain Light Rain
2:49 AM 37.4 °F 25.4 °F 33.8 °F 87% 29.69 in 6.0 mi SE 27.6 mph 40.3 mph 0.02 in Rain Light Rain
2:56 AM 37.9 °F 25.5 °F 34.0 °F 86% 29.70 in 4.0 mi SE 31.1 mph 43.7 mph 0.02 in Rain Light Rain
3:10 AM 37.4 °F 25.0 °F 33.8 °F 87% 29.67 in 9.0 mi SE 29.9 mph 49.5 mph 0.00 in Rain Light Rain
3:56 AM 39.0 °F 27.4 °F 35.1 °F 86% 29.65 in 5.0 mi SE 28.8 mph 38.0 mph 0.01 in Rain Light Rain
4:56 AM 39.0 °F 28.8 °F 36.0 °F 89% 29.63 in 4.0 mi ESE 21.9 mph 31.1 mph 0.01 in Rain Light Rain
5:56 AM 39.9 °F 28.0 °F 37.0 °F 89% 29.58 in 4.0 mi SE 32.2 mph 40.3 mph 0.02 in Rain Light Rain
6:56 AM 39.9 °F 27.8 °F 37.0 °F 89% 29.55 in 4.0 mi SE 33.4 mph 42.6 mph 0.01 in Rain Light Rain
7:48 AM 41.0 °F 30.0 °F 37.4 °F 87% 29.51 in 5.0 mi SE 28.8 mph 39.1 mph 0.06 in Rain Light Rain
7:56 AM 41.0 °F 30.5 °F 37.0 °F 86% 29.53 in 4.0 mi ESE 26.5 mph 38.0 mph 0.07 in Rain Light Rain
8:56 AM 41.0 °F 30.2 °F 37.9 °F 89% 29.50 in 3.0 mi SE 27.6 mph 39.1 mph 0.07 in Rain Light Rain
9:56 AM 42.1 °F 32.3 °F 37.9 °F 85% 29.48 in 2.0 mi ESE 24.2 mph 34.5 mph 0.06 in Rain Rain
10:08 AM 42.8 °F 32.7 °F 37.4 °F 81% 29.45 in 1.5 mi East 27.6 mph 43.7 mph 0.02 in Rain Light Rain
10:40 AM 42.8 °F 32.7 °F 37.4 °F 81% 29.44 in 2.5 mi ESE 27.6 mph 42.6 mph 0.05 in Rain Light Rain
10:56 AM 42.1 °F 33.3 °F 37.9 °F 85% 29.45 in 2.0 mi East 19.6 mph 32.2 mph 0.06 in Rain Light Rain
11:31 AM 42.8 °F 32.1 °F 39.2 °F 87% 29.39 in 1.8 mi ESE 31.1 mph 40.3 mph 0.02 in Rain Light Rain
11:56 AM 42.1 °F 31.1 °F 39.0 °F 89% 29.39 in 1.8 mi ESE 31.1 mph 47.2 mph 0.04 in Rain Light Rain
12:56 PM 42.1 °F 32.3 °F 39.0 °F 89% 29.38 in 2.0 mi SE 24.2 mph 35.7 mph 0.05 in Rain Light Rain
1:17 PM 42.8 °F 34.5 °F 39.2 °F 87% 29.36 in 1.8 mi ESE 18.4 mph 39.1 mph 0.04 in Rain Light Rain
1:56 PM 43.0 °F 35.1 °F 39.0 °F 86% 29.34 in 1.5 mi ESE 17.3 mph 33.4 mph 0.12 in Rain Light Rain
2:51 PM 42.8 °F 33.5 °F 37.4 °F 81% 29.26 in 3.0 mi East 23.0 mph 43.7 mph 0.11 in Rain Rain
2:56 PM 43.0 °F 32.7 °F 37.9 °F 82% 29.26 in 3.0 mi ESE 28.8 mph 48.3 mph 0.13 in Rain Rain
3:16 PM 42.8 °F 33.8 °F 37.4 °F 81% 29.23 in 2.0 mi ESE 21.9 mph 42.6 mph 0.08 in Rain Rain
3:30 PM 42.8 °F 33.1 °F 37.4 °F 81% 29.23 in 4.0 mi ESE 25.3 mph 44.9 mph 0.12 in Rain Rain
3:56 PM 42.1 °F 31.5 °F 37.9 °F 85% 29.21 in 3.0 mi East 28.8 mph 47.2 mph 0.22 in Rain Rain
4:56 PM 41.0 °F 30.0 °F 37.9 °F 89% 29.17 in 3.0 mi East 28.8 mph 50.6 mph 0.22 in Rain Light Rain
5:16 PM 41.0 °F 28.2 °F 37.4 °F 87% 29.12 in 2.0 mi East 41.4 mph 52.9 mph 0.09 in Rain Rain
5:52 PM 41.0 °F 29.7 °F 37.4 °F 87% 29.11 in 3.0 mi East 31.1 mph 51.8 mph 0.25 in Rain Light Rain
5:56 PM 41.0 °F 29.3 °F 37.9 °F 89% 29.12 in 3.0 mi East 33.4 mph 54.1 mph 0.27 in Rain Light Rain
6:56 PM 42.1 °F 32.6 °F 39.0 °F 89% 29.07 in 4.0 mi East 23.0 mph 41.4 mph 0.20 in Rain Rain
7:12 PM 42.8 °F 33.1 °F 39.2 °F 87% 29.03 in 5.0 mi East 25.3 mph 49.5 mph 0.06 in Rain Rain
7:30 PM 42.8 °F 32.1 °F 39.2 °F 87% 29.00 in 4.0 mi East 31.1 mph 43.7 mph 0.12 in Rain Rain
7:51 PM 44.6 °F 35.5 °F 39.2 °F 81% 28.99 in 6.0 mi East 25.3 mph 35.7 mph 0.22 in Rain Rain
7:56 PM 44.1 °F 36.5 °F 39.9 °F 85% 29.00 in 6.0 mi ESE 17.3 mph 35.7 mph 0.24 in Rain Rain
8:56 PM 45.0 °F 39.7 °F 39.9 °F 82% 28.98 in 10.0 mi SE 10.4 mph - 0.13 in Rain Light Rain
9:56 PM 45.0 °F 40.1 °F 39.9 °F 82% 28.99 in 10.0 mi SSE 9.2 mph - 0.00 in   Overcast
10:56 PM 45.0 °F 41.2 °F 39.0 °F 80% 29.04 in 10.0 mi South 6.9 mph - N/A   Overcast
11:16 PM 46.4 °F 43.5 °F 37.4 °F 71% 29.04 in 10.0 mi Variable 5.8 mph - N/A   Mostly Cloudy
11:56 PM 45.0 °F 38.9 °F 37.9 °F 76% 29.10 in 10.0 mi South 12.7 mph 18.4 mph N/A   Partly Cloudy